Location: Nebula Knoll Observatory
(43.6666°N, 71.0000°W)
Time: 09:05:01
(UTC-04:00)

Daily predictions for brighter satellites

Satellite Brightness Start Highest point End
(mag) Time Altitude Azimuth Time Altitude Azimuth Time Altitude Azimuth
Cosmos 1408 3.2 20:37:47 10° SSE 20:41:10 37° E 20:44:32 10° NNE
NOSS 5 (C) 4.2 20:38:32 10° SSW 20:41:55 84° SE 20:45:01 10° NE
Cosmos 1378 Rocket 3.7 20:38:02 10° N 20:42:16 53° E 20:46:31 10° SSE
H-2A R/B 3.6 20:38:54 10° S 20:42:30 49° W 20:46:10 10° NNW
Cosmos 1733 Rocket 3.8 20:40:16 10° SSW 20:44:36 58° W 20:48:56 10° N
Cosmos 1908 Rocket 3.6 20:41:06 10° S 20:45:27 63° E 20:49:53 10° NNE
Cosmos 1782 3.8 20:50:12 10° NNW 20:54:08 50° W 20:58:02 10° S
Cosmos 2341 Rocket 4.1 20:51:39 10° S 20:57:48 61° E 21:03:57 10° NNE
Cosmos 1833 Rocket 3.6 20:53:30 10° N 20:58:37 34° NE 21:03:24 11° ESE
Cosmos 614 Rocket 4.4 20:53:45 10° N 20:58:40 46° ENE 21:03:15 11° SE
Envisat 3.1 20:55:56 10° SSE 21:00:57 67° ENE 21:06:01 10° N
Cosmos 1844 Rocket 3.7 20:57:40 10° SW 21:03:10 51° WNW 21:08:39 10° NNE
deb Chang Zheng 4 3.7 20:59:22 10° NNE 21:03:44 54° E 21:08:05 10° S
Cosmos 1825 2.1 21:00:33 10° S 21:04:21 77° E 21:08:11 10° N
Cosmos 2278 Rocket 2.2 21:02:10 10° SSW 21:07:50 89° ESE 21:13:33 10° NNE
Terra 3.9 21:06:40 10° E 21:08:37 12° ENE 21:10:36 10° NE
ERS-1 Rocket 3.3 21:05:03 10° S 21:10:04 70° WSW 21:15:07 10° NNW
Timation 2 Rocket 3.9 21:07:28 10° NNW 21:13:30 86° ENE 21:19:05 12° SSE
Cosmos 1420 Rocket 3.9 21:08:34 10° S 21:13:47 71° ESE 21:18:59 10° NNE
H-2A R/B 2.0 21:10:01 10° SSE 21:14:17 85° ENE 21:18:29 10° NNW
ISS -2.2 21:12:23 10° WSW 21:15:33 47° NNW 21:18:43 10° NE
Cosmos 1140 Rocket 3.5 21:10:23 10° NNW 21:15:33 84° WSW 21:20:40 10° SSE
Okean 3 3.6 21:13:09 10° N 21:17:26 80° W 21:21:40 10° S
APEX 3.6 21:14:48 10° SSW 21:18:48 70° ESE 21:24:07 10° NNE
Cosmos 1939 Rocket 3.2 21:15:42 10° S 21:19:33 65° W 21:23:31 10° NNW
Cosmos 2154 Rocket 4.2 21:13:29 10° SSW 21:19:41 74° W 21:25:54 10° N
Cosmos 1238 Rocket 3.1 21:18:33 10° NNW 21:21:56 61° W 21:25:56 10° S
COSMOS 2487 3.7 21:18:43 10° NW 21:22:08 39° WSW 21:25:30 10° S
Cosmos 2151 Rocket 4.3 21:19:34 15° SSE 21:22:50 34° E 21:26:56 10° NNE
BREEZE-M TANK 4.2 21:03:01 10° W 21:23:22 80° N 21:27:39 10° E
Abrixas 3.1 21:21:28 10° SSW 21:24:17 34° SE 21:26:19 16° E
CZ-4B R/B 4.1 21:20:52 10° NNE 21:25:17 33° E 21:28:23 17° SSE
Cosmos 2082 Rocket 2.3 21:20:58 10° NNW 21:26:41 68° ENE 21:30:58 18° SE
SPOT 5 3.1 21:23:32 11° SSE 21:28:37 85° ENE 21:34:00 10° NNW
Cosmos 1812 3.9 21:35:23 10° NNE 21:38:44 27° ENE 21:39:59 23° ESE
Lacrosse 5 2.8 21:35:01 10° S 21:39:09 25° ESE 21:43:16 10° ENE
Cosmos 1184 Rocket 4.3 21:36:14 10° SSW 21:39:22 38° WNW 21:42:33 10° N
UNK 4.4 21:34:43 10° NNE 21:40:52 64° ESE 21:46:40 10° S
Intercosmos 25 2.8 21:38:00 10° S 21:41:21 87° W 21:44:33 10° N
H-2A R/B 3.1 21:40:11 20° ESE 21:43:03 32° ENE 21:47:40 10° N
Cosmos 2366 rocket 4.1 21:37:33 12° S 21:43:16 59° E 21:49:30 10° NNE
Cosmos 2297 3.7 21:40:48 10° SSW 21:46:31 87° WNW 21:52:18 10° NNE
MetOp-B 4.2 21:43:40 16° S 21:48:04 79° WSW 21:53:27 10° NNW
NOAA 11 4.2 21:46:39 22° SSE 21:50:15 67° ENE 21:55:44 10° N
Meteor 1-14 Rocket 4.2 21:44:52 10° S 21:50:31 86° E 21:56:08 10° N
Okean 2 Rocket 4.0 21:49:45 10° SSW 21:54:01 48° WNW 21:58:17 10° N
BREEZE-M DEB (TANK) 3.5 21:55:39 10° WNW 21:57:30 25° N 22:00:20 10° ENE
SPOT 1/Viking Rocket 3.5 21:55:17 23° SSE 21:58:40 90° ENE 22:03:56 10° NNW
Cosmos 1242 Rocket 4.3 21:58:34 10° NNW 22:01:49 30° W 22:04:46 12° SSW
USA 229 DEB 3.9 21:55:25 10° NW 22:02:31 75° WSW 22:07:00 25° SSE
USA 229 3.9 21:55:31 10° NW 22:02:37 75° WSW 22:07:05 25° SSE
NOSS 8 (E) 4.4 22:00:12 10° SW 22:03:39 90° NNW 22:07:25 10° NE
ASTEX 1 4.5 21:59:46 10° NNE 22:03:59 27° E 22:04:54 26° ESE
Meteor 2-19 Rocket 4.4 22:05:32 21° S 22:09:41 69° E 22:15:46 10° NNE
ARGOS 3.2 22:09:06 26° S 22:12:15 79° WSW 22:17:38 10° NNW
YAOGAN 6 3.8 22:10:46 21° SSW 22:12:34 37° W 22:15:53 10° NNW
CARTOSAT-1 4.0 22:12:40 37° ESE 22:13:49 46° ENE 22:17:58 10° N
Cosmos 2369 Rocket 3.4 22:14:07 22° E 22:14:07 22° E 22:18:08 10° NE
Cosmos 2218 Rocket 4.3 22:08:44 10° SSW 22:15:07 72° W 22:21:32 10° N
Lacrosse 5 rocket 1.1 22:11:30 10° SSW 22:15:22 59° SE 22:19:06 10° NE
OAO 3 Rocket 4.1 22:11:22 10° WSW 22:15:30 30° S 22:15:30 30° S
SL-08 RB Rocket 3.7 22:15:38 33° S 22:17:42 79° WSW 22:22:23 10° NNW
CZ-4 R/B 3.6 22:13:05 10° NNE 22:17:47 79° ESE 22:20:06 30° S
Meteor 2-8 Rocket 4.5 22:12:49 10° N 22:19:00 80° W 22:22:44 26° S
NOSS 3-1 (A) 4.4 22:13:23 10° NNW 22:20:43 56° NE 22:25:30 25° ESE
Cosmos 1536 Rocket 4.1 22:20:36 10° NNW 22:25:00 57° W 22:27:02 30° SSW
AVUM R/B 4.4 22:22:16 10° NW 22:25:32 36° WSW 22:26:05 34° SW
Gbstr 26 Del rocket 3.0 22:21:08 10° WNW 22:26:18 89° NNE 22:27:30 49° ESE
Cosmos 1727 Rocket 4.1 22:20:34 10° NNW 22:26:43 71° W 22:30:26 25° S
Landsat 7 3.8 22:28:19 42° S 22:29:58 86° WSW 22:34:46 10° NNW
Cosmos 1331 Rocket 3.9 22:27:09 22° SSW 22:30:33 89° WNW 22:35:45 10° NNE
IGS 5A 3.5 22:32:35 56° ESE 22:33:12 64° ENE 22:37:21 10° N
DELTA 2 DEB (DPAF) 4.1 22:34:27 47° S 22:35:41 77° WSW 22:40:10 10° NNW
CZ-4C R/B 3.4 22:36:09 56° SSW 22:36:55 75° WSW 22:41:07 10° NNW
SAR-Lupe-2 4.2 22:37:36 43° ENE 22:37:36 43° ENE 22:40:49 10° N
Cosmos 1943 Rocket 4.2 22:40:11 13° E 22:40:11 13° E 22:41:37 10° ENE
Cosmos 1110 Rocket 4.3 22:35:43 14° SSW 22:40:12 66° WNW 22:45:23 10° NNE
Meteor 1-19 Rocket 4.5 22:35:21 10° N 22:41:08 57° ENE 22:42:45 42° SE
ATLAS 2AS CENTAUR R/B 4.1 22:33:55 10° NNW 22:41:23 37° NE 22:46:58 16° E
Cosmos 1833 Rocket 3.7 22:37:24 10° NW 22:42:33 38° WSW 22:45:06 25° SSW
Meteor 1-20 Rocket 4.4 22:39:25 22° SSW 22:43:00 67° WNW 22:48:30 10° N
Cosmos 1400 Rocket 3.4 22:44:15 43° ENE 22:44:15 43° ENE 22:47:47 10° NNE
Terra 1.7 22:44:32 53° S 22:45:40 85° WSW 22:50:28 10° NNW
Cosmos 1536 3.7 22:49:24 36° ENE 22:49:24 36° ENE 22:52:24 10° NNE
NOSS 3-1 (C) 4.0 22:41:48 10° NW 22:49:23 89° NE 22:53:00 38° SE
Spot 2 4.4 22:45:44 10° NNE 22:49:28 48° ENE 22:49:28 48° ENE
DMSP B5D2-2 3.9 22:46:22 10° NNE 22:51:38 85° ESE 22:53:13 47° S
Cosmos 1025 Rocket 3.2 22:47:31 10° N 22:51:52 55° E 22:52:00 55° E
ISS -0.7 22:50:00 10° WNW 22:52:31 20° N 22:55:04 10° NE
USA 234 3.4 22:50:55 10° ENE 22:57:11 46° SE 22:58:06 44° SSE
Cosmos 1821 Rocket 3.9 22:57:21 47° SSE 22:59:11 69° E 23:05:21 10° NNE
Meteor 2-21 4.4 22:58:14 46° S 23:00:12 78° E 23:06:26 10° N
Cosmos 1809 Rocket 4.4 23:03:31 46° S 23:05:33 86° E 23:11:47 10° N
Cosmos 1455 Rocket 4.4 23:07:09 27° ENE 23:07:09 27° ENE 23:10:00 10° NNE
Cosmos 1934 Rocket 3.9 23:05:08 52° SSE 23:06:25 65° E 23:12:25 10° NNE
Spot 4 3.9 23:06:33 59° SSW 23:07:18 71° WSW 23:12:10 10° NNW
Cosmos 1354 Rocket 3.9 23:04:25 10° NNW 23:09:44 88° ENE 23:10:29 67° SSE
Cosmos 2082 Rocket 4.2 23:06:24 10° WNW 23:10:08 18° W 23:12:49 13° SW
Cosmos 2285 Rocket 3.9 23:12:34 52° S 23:14:08 72° ESE 23:20:31 10° NNE
Okean 1 Rocket 4.1 23:13:53 33° WSW 23:15:09 41° WNW 23:19:24 10° N
Cosmos 1602 4.2 23:16:36 59° WNW 23:16:36 59° WNW 23:20:14 10° N
Cosmos 2123 Rocket 4.0 23:10:22 10° N 23:16:38 72° E 23:17:57 55° SE
ALOS 2 4.1 23:19:16 25° ENE 23:19:16 25° ENE 23:22:49 10° NNE
Lacrosse 5 2.2 23:16:42 10° WSW 23:21:46 63° NW 23:26:50 10° NE
Genesis I 4.4 23:21:07 34° W 23:22:15 43° NW 23:26:08 10° NNE
H-2A R/B 3.2 23:20:50 30° SW 23:22:22 36° W 23:27:13 10° NNW
Cosmos 1992 Rocket 4.4 23:23:59 47° E 23:23:59 47° E 23:28:26 10° NNE
Meteor 2-4 Rocket 3.5 23:20:04 10° N 23:25:34 86° W 23:26:19 68° S
Cosmos 2263 4.1 23:27:22 63° ESE 23:27:25 63° ESE 23:33:01 10° NNE
Cosmos 1818 3.9 23:32:09 50° E 23:32:09 50° E 23:36:43 10° NE
Cosmos 1544 Rocket 3.8 23:36:48 64° N 23:36:48 64° N 23:40:31 10° N
Meteor 2-15 Rocket 4.3 23:32:55 10° N 23:39:04 83° W 23:40:05 64° S
SL-8 R/B 3.7 23:35:09 10° WNW 23:39:35 75° NW 23:39:35 75° NW
H-2A R/B 4.2 23:37:27 10° NE 23:40:06 25° ENE 23:40:06 25° ENE
Cosmos 1633 4.0 23:44:52 36° NW 23:44:52 36° NW 23:47:39 10° N
Iridium 4 Rocket 4.3 23:42:25 10° NNW 23:48:09 53° W 23:49:23 45° SW
Cosmos 1833 4.2 23:43:42 10° NNW 23:49:19 66° ENE 23:49:49 63° E
Cosmos 1315 Rocket 3.9 23:51:14 42° NW 23:51:14 42° NW 23:54:19 10° N
Lacrosse 5 rocket 3.4 23:51:42 10° W 23:54:50 23° NNW 23:57:54 10° NNE
